HAIYANG-2A

Last updated on Thu Nov 21 2024 00:02:27 GMT+0000 (Coordinated Universal Time)

1 37781U 11043A 24325.57410361 .00000000 00000+0 43301-4 0 9992 2 37781 99.3306 326.5425 0001379 61.4796 298.6494 13.78813614667630
UTC large
Height (km)
Speed (km/s)
/
Latitude / Longitude
Inclination (degrees)
Orbital Period (minutes)
Azimuth
Elevation
Range (km)
Doppler Factor

Next 0 passes for location: London (51.5072 / 0.1276)

Sorry there are no passes over London.